Temp_Advection
nan nan nan nan nan nan nan nan nan nan nan nan nan nan nan nan nan nan nan nan nan nan nan nan nan nan nan nan nan nan nan nan nan nan nan nan nan nan nan nan nan nan nan nan nan nan nan nan nan
nan 0 0 0 0 -0 -0 0 -0 -0 0 -0 0 -0 -0 -0 0 0 0 0 0 0 -0 0 0 0 0 0 0 0 0 0 0 0 -0 -0 -0 0 0 0 0 -0 -0 -0 -0 -0 0 0 nan
nan 0 0 0 0 -0 -0 -0 -0 -0 0 0 0 0 0 -0 -0 0 0 0 0 0 -0 -0 0 0 0 0 0 0 0 0 0 0 0 -0 -0 0 0 0 0 0 -0 -0 -0 -0 -0 -0 nan
nan 0 -0 0 -0 -0 0 -0 0 0 0 0 0 0 -0 0 -0 0 1 1 1 0 0 -0 0 0 0 -0 0 0 0 0 0 0 0 0 -0 -0 0 0 0 0 -0 -0 -0 -0 -0 -0 nan
nan 0 0 -0 -0 -0 -0 0 0 0 0 0 0 -0 -0 0 0 0 1 1 1 1 1 0 0 0 0 -0 -0 0 0 0 0 0 0 0 0 -0 0 0 0 0 -0 -0 -0 -0 -0 -0 nan
nan 0 -0 -1 -1 0 -0 -0 0 0 0 0 -0 -0 -0 -0 -0 0 1 1 0 0 1 0 0 0 0 0 -0 -0 0 0 0 -0 0 0 -0 0 0 0 0 0 0 -0 -0 -0 -0 -0 nan
nan 0 -0 -0 0 -0 -0 -0 -0 0 -0 -0 0 -0 0 -0 -0 0 1 1 1 0 0 0 0 0 0 0 0 0 0 -0 -0 -0 -0 0 -0 -0 0 0 0 0 0 -0 -0 -0 -0 -0 nan
nan -0 -0 0 0 -0 0 -0 0 0 -0 -0 0 -0 0 0 0 0 0 0 1 1 0 0 0 0 0 0 0 0 -0 -0 -0 -0 -0 0 0 -0 -0 -0 0 0 -0 -0 -0 -0 -0 -0 nan
nan -0 -0 -0 0 -0 0 0 0 0 0 0 0 0 0 0 0 -0 0 0 0 0 0 0 0 0 0 0 0 0 -0 -0 -0 -0 -0 -0 -0 -0 -0 0 0 0 -0 -0 -0 -0 -0 -0 nan
nan -0 -0 0 -0 0 0 0 -0 0 0 0 0 0 -0 0 0 0 -0 -0 0 0 0 0 0 0 0 0 0 0 -0 -0 -0 -0 -0 -0 -0 -0 -0 0 0 0 0 -0 -0 -0 -0 -0 nan
nan -0 -0 -0 -0 0 0 0 0 0 -0 -1 -0 -0 -0 -0 0 0 -0 0 0 -0 -0 0 1 0 0 0 0 -0 -0 -0 -0 -0 -0 -0 -0 -0 -0 -0 -0 0 0 0 0 -0 0 0 nan
nan -0 -0 -0 0 0 0 0 0 -0 -1 0 0 0 -0 0 0 -0 -0 0 -0 0 0 0 0 -0 0 0 -0 -0 -0 -0 -0 -0 0 0 0 0 -0 -0 -0 -0 -0 -0 0 0 0 0 nan
nan -0 -0 -0 0 0 0 0 0 -0 -0 0 0 0 0 0 0 0 0 -0 -0 0 0 0 -0 -0 0 0 -0 -0 -0 -0 0 0 0 0 0 0 0 -0 -0 -0 -0 -0 0 0 0 0 nan
nan 0 -0 0 0 0 -0 0 0 -1 0 0 0 0 -0 -0 0 0 0 -0 -0 -0 -0 -0 -1 0 0 -0 -0 -0 0 0 0 0 0 0 0 0 0 0 -0 -0 0 0 0 0 0 0 nan
nan 0 0 0 0 -0 -0 -0 -0 -0 1 0 0 0 -0 0 0 0 0 -0 -0 0 0 -0 -0 -0 -1 -0 0 -0 0 0 0 0 0 0 0 0 0 0 0 0 0 0 0 0 0 0 nan
nan 0 0 -0 -0 -0 0 0 -0 0 1 0 0 -0 -0 0 0 0 -0 -0 0 0 0 -0 -0 -0 -0 0 0 -0 0 0 0 0 0 0 0 0 0 0 0 0 0 0 0 0 0 0 nan
nan 0 -0 0 0 0 0 0 -0 0 0 0 -0 -0 0 0 0 0 -0 -0 -0 0 0 -0 -0 -0 0 0 -0 -0 0 0 0 0 0 0 0 0 0 0 0 0 -0 0 0 0 0 0 nan
nan -0 -0 0 0 0 0 -0 -0 0 0 0 -0 0 0 0 0 0 -0 -0 0 0 -0 -0 0 0 0 0 -0 0 0 0 0 0 0 -0 0 -0 -0 0 0 0 -0 -0 0 0 0 0 nan
nan -0 0 0 -0 -0 -0 0 0 0 0 -0 -0 0 1 0 1 -0 -0 -0 -0 -0 -0 0 0 0 0 0 0 -0 -0 -0 0 -0 -0 -0 -0 -0 -0 0 0 -0 -0 0 0 0 0 0 nan
nan 0 0 0 0 0 0 -0 -0 -0 -0 -0 -0 -0 -0 -0 0 -1 -1 -0 -0 -0 -0 0 0 0 1 0 -0 -0 -0 0 -0 -0 -0 0 -0 -0 -0 -0 -0 -0 0 0 0 0 0 0 nan
nan 0 -0 0 -0 -0 0 -0 0 -0 -0 0 -0 -1 -1 0 -0 -1 -0 -0 -0 0 -0 -0 0 0 -0 -0 0 -0 -0 -0 -0 -0 0 -0 -0 -0 -0 0 0 0 0 -0 0 0 0 0 nan
nan -0 -0 -0 0 0 0 0 -0 0 0 -0 -0 0 0 -0 -0 0 -0 -1 -0 -0 0 0 -0 -0 -1 -0 -0 -0 -0 -1 -0 0 -0 0 -0 -0 -0 -0 -0 0 -0 0 0 -0 0 0 nan
nan -0 -0 0 0 0 0 -0 0 0 -1 -0 -0 -1 -1 -0 -0 -0 -1 -0 -0 0 0 -1 -1 0 0 0 -0 -0 -0 -0 0 0 0 -0 -0 0 0 0 0 0 -0 -0 0 1 1 1 nan
nan -0 -0 0 0 0 0 0 0 -0 0 0 -1 -1 -1 -1 -1 -0 -0 -0 -0 -0 -0 -0 -0 0 0 0 0 0 0 0 0 0 0 0 0 0 -0 -0 0 0 0 0 0 0 0 1 nan
nan 0 0 0 0 0 0 0 -0 0 -0 -0 -1 -1 -1 -1 -0 -0 -0 -0 -0 -0 -0 -0 0 0 0 0 0 0 0 0 0 0 0 0 0 0 0 0 0 0 0 0 0 0 0 0 nan
nan 0 -0 0 0 -0 0 -0 0 0 -0 0 0 0 0 -0 -0 0 -0 0 0 0 0 -0 0 0 1 0 0 0 0 0 0 0 0 0 0 0 0 0 0 0 0 0 0 0 0 1 nan
nan 0 0 0 -0 0 0 -0 -0 0 0 0 -0 -0 -0 0 0 0 1 1 1 0 0 0 0 1 1 1 1 1 0 0 0 0 0 0 0 0 0 0 0 0 0 0 0 1 1 1 nan
nan -0 -0 0 0 0 0 -0 -0 0 0 -0 0 -0 0 0 0 0 0 1 1 1 1 1 1 1 1 1 1 0 0 0 0 -0 0 0 0 1 0 0 0 0 0 0 1 1 1 0 nan
nan -0 -0 -0 0 0 0 -0 0 -0 -0 0 0 -0 0 0 0 1 1 1 1 1 1 1 1 1 1 0 0 0 0 0 0 0 0 1 1 1 1 0 0 0 0 0 1 1 0 -0 nan
nan nan nan nan nan nan nan nan nan nan nan nan nan nan nan nan nan nan nan nan nan nan nan nan nan nan nan nan nan nan nan nan nan nan nan nan nan nan nan nan nan nan nan nan nan nan nan nan nan
Wind_Speed
13 10 7 8 3 1 4 5 2 4 3 4 3 4 3 2 5 3 7 22 33 36 34 31 28 26 25 22 20 17 14 12 9 7 7 8 10 13 14 14 13 13 13 12 12 11 12 13 14
14 10 8 4 3 5 5 4 7 4 5 6 2 3 3 3 5 2 16 28 35 36 35 32 30 27 25 22 20 17 15 12 9 7 7 9 11 14 14 14 14 14 14 15 15 16 16 16 17
14 11 6 4 3 10 6 6 7 2 0 4 2 2 2 6 4 4 11 29 36 36 34 32 31 27 25 22 19 16 14 12 9 8 9 10 11 13 13 14 15 16 17 18 18 18 17 17 17
13 8 2 4 14 5 4 7 7 7 3 5 6 3 1 6 7 6 17 30 38 37 34 31 31 27 25 22 19 16 14 11 9 10 10 9 12 11 11 13 15 16 18 19 19 18 17 16 17
15 6 4 7 13 3 4 7 11 4 2 3 7 4 3 5 4 10 24 31 40 37 33 30 29 26 24 22 19 16 13 12 12 13 11 12 13 11 10 12 14 16 18 18 18 18 17 17 16
7 3 6 14 23 8 6 9 5 5 4 2 4 4 3 5 2 11 21 29 38 36 33 30 27 25 24 21 19 17 14 14 13 13 11 11 16 12 12 12 13 15 17 17 17 16 16 17 16
6 4 9 19 18 11 9 15 10 5 5 3 1 3 4 11 4 11 18 27 30 32 30 29 27 25 22 21 20 19 17 14 14 12 10 11 15 15 13 12 13 14 15 15 15 14 14 14 14
7 3 10 5 13 17 10 15 14 16 11 9 4 2 3 12 6 12 18 24 27 32 30 29 28 26 24 22 20 19 16 14 12 10 9 13 16 16 14 12 12 13 13 13 12 11 11 11 11
8 4 12 16 10 7 13 12 7 5 10 9 9 4 5 14 3 11 18 22 26 29 30 28 28 27 25 23 21 19 15 13 10 8 6 11 17 18 16 14 12 12 12 11 10 9 9 8 8
5 7 7 4 5 4 10 13 13 8 9 5 9 4 4 14 6 16 22 23 25 30 31 31 28 27 26 24 24 21 17 14 11 9 8 9 14 18 19 16 13 13 12 11 10 9 7 6 5
7 6 5 4 9 5 6 12 16 12 9 17 15 9 2 9 8 18 24 23 24 28 30 30 31 29 27 27 25 22 19 15 12 11 11 11 13 14 16 17 16 14 12 11 9 7 6 5 5
5 11 5 5 4 7 4 7 11 18 21 14 9 11 10 4 7 17 18 23 23 28 28 30 29 29 27 26 25 22 19 16 14 12 13 13 14 13 14 14 12 11 10 9 8 7 7 7 7
8 2 20 15 5 2 4 6 8 14 20 17 15 11 10 8 8 13 15 18 20 24 29 29 29 28 28 27 25 22 20 16 14 13 13 15 15 13 13 14 14 13 12 10 8 7 8 9 9
7 15 4 20 4 1 1 2 9 13 20 16 22 19 12 5 2 15 18 19 21 23 28 28 29 29 28 28 26 23 20 17 15 13 14 15 15 14 12 12 12 12 11 11 10 10 10 10 11
6 11 15 7 3 4 5 6 5 5 20 21 24 30 30 17 6 4 16 21 22 24 26 28 27 29 30 28 26 23 21 19 17 13 14 14 14 14 14 12 12 11 11 11 11 11 11 11 11
11 4 11 13 5 5 6 8 5 9 19 25 29 30 31 24 15 11 14 24 23 22 24 22 22 24 29 30 27 24 22 20 18 16 15 15 14 13 14 13 11 11 11 12 10 11 11 11 11
9 10 9 10 13 3 8 4 4 7 11 16 18 23 31 26 22 20 17 21 21 22 22 23 22 22 23 30 29 24 22 21 19 18 17 16 16 15 13 13 13 12 11 11 10 9 10 9 9
14 10 8 12 10 10 5 4 0 9 9 11 17 22 24 29 28 13 17 18 21 21 20 20 21 24 19 23 26 22 21 21 20 19 17 19 17 16 14 14 13 14 13 12 11 10 9 9 9
1 12 11 7 5 11 7 6 3 3 11 9 10 18 23 28 35 20 18 10 16 21 21 25 22 20 20 21 24 25 27 25 22 20 15 18 16 16 16 15 15 15 16 13 12 12 12 11 11
3 11 9 5 5 8 8 7 6 4 5 17 18 20 28 35 43 37 22 14 18 21 24 18 18 18 19 20 23 25 23 22 20 15 18 20 18 16 17 16 16 17 16 16 16 15 14 14 14
4 6 10 7 7 1 8 8 7 5 9 11 17 25 33 32 31 26 21 18 14 18 17 18 16 17 18 19 22 24 23 23 22 24 21 19 18 17 17 17 17 18 18 19 18 17 16 16 16
1 8 17 13 14 7 3 5 9 13 8 8 19 20 23 30 34 33 28 29 21 19 19 20 17 19 26 29 28 26 25 22 21 25 22 20 21 20 20 19 19 18 20 22 22 21 22 21 20
2 6 2 10 6 5 2 2 3 4 18 16 14 24 23 22 22 28 30 23 24 30 30 31 33 29 24 24 27 26 30 26 25 25 23 23 20 23 21 21 21 22 24 24 25 24 26 24 24
8 3 6 6 4 4 4 4 4 6 10 11 15 26 31 28 24 24 20 20 19 21 25 24 26 30 26 24 25 26 27 27 26 25 21 20 18 20 22 24 22 24 24 23 24 24 23 24 25
5 4 2 4 4 3 6 5 8 3 4 7 17 29 34 35 31 29 28 25 24 19 21 25 23 24 26 24 23 21 20 22 22 21 20 20 20 20 20 22 24 24 24 24 22 22 23 23 24
4 4 2 3 6 5 3 7 7 4 14 11 11 12 12 25 33 32 31 26 24 22 20 22 23 24 25 26 25 22 21 22 21 22 21 20 20 21 21 22 23 23 24 24 25 26 26 25 24
5 4 4 2 2 3 3 5 7 6 6 5 13 15 16 14 23 27 27 25 23 22 20 19 19 22 26 27 26 25 24 23 23 22 21 20 21 22 24 25 25 26 26 27 27 27 27 27 25
1 6 2 1 3 3 1 4 3 2 5 3 4 8 10 10 11 16 22 22 23 22 22 21 19 17 19 20 20 20 19 19 20 21 22 24 26 27 27 28 30 30 30 29 28 26 26 27 25
4 2 2 1 1 3 4 3 3 2 2 1 3 4 7 9 10 14 19 22 23 23 22 21 20 20 19 19 18 18 19 20 22 23 25 28 28 27 26 25 24 25 23 23 24 23 23 28 23
2 5 4 3 3 2 1 2 1 4 4 1 2 2 5 7 9 12 17 21 21 20 19 18 18 17 17 17 18 18 19 20 20 22 23 23 23 22 21 20 20 20 19 17 16 16 19 24 23
Wind_Direction
205 191 181 169 177 93 201 220 271 170 191 174 208 194 251 266 168 200 175 167 171 170 169 171 174 174 173 171 170 170 167 162 154 136 115 104 100 107 96 89 102 114 118 123 123 114 108 105 101
204 190 174 155 178 183 209 187 204 199 149 332 144 217 272 268 220 232 159 165 171 171 170 171 176 176 176 175 174 173 170 168 161 139 128 114 107 106 95 87 97 105 111 116 116 114 112 109 106
206 184 165 171 190 213 193 185 179 205 86 89 61 128 291 305 278 232 177 168 170 173 171 170 174 177 178 177 176 175 173 167 158 145 135 119 112 115 95 91 100 104 108 111 112 110 110 110 107
192 175 223 211 217 226 181 168 158 141 115 84 13 72 16 312 284 219 179 174 171 173 173 169 174 177 178 177 177 172 167 160 157 152 143 128 122 130 106 92 100 106 110 111 110 108 109 110 110
175 152 204 232 230 217 231 130 140 117 111 54 36 341 351 323 276 188 176 173 172 172 171 171 175 176 176 176 170 172 166 159 154 153 155 153 133 145 124 102 105 111 113 114 113 112 109 111 110
159 172 199 214 222 203 222 190 142 155 153 69 37 359 48 358 95 157 171 173 173 170 169 171 176 175 176 173 173 173 167 157 164 158 150 155 148 154 138 117 111 116 119 118 116 114 113 109 111
171 178 209 224 218 222 207 223 219 175 173 177 25 20 18 37 142 167 172 172 177 174 169 174 173 179 179 175 178 175 174 171 169 158 159 161 155 151 147 133 122 123 122 123 121 119 116 112 111
201 182 218 212 201 222 195 204 230 215 234 216 166 118 5 359 5 183 176 176 176 175 174 175 176 181 181 180 181 180 182 185 169 168 165 157 155 154 151 146 135 129 129 129 130 127 119 117 112
184 213 223 217 185 205 180 192 180 172 184 186 191 155 358 342 302 190 182 180 180 180 178 179 181 185 185 182 180 183 186 186 188 186 184 173 159 161 160 155 149 143 141 141 145 143 136 129 123
175 217 229 188 181 194 185 180 160 188 165 182 158 170 320 329 202 188 185 187 186 184 183 183 186 190 186 185 185 187 188 188 189 189 186 178 171 175 165 165 165 159 153 157 161 164 160 156 146
183 226 206 217 197 198 191 207 197 148 190 205 205 219 218 359 207 194 186 194 197 190 189 188 190 194 191 189 189 190 189 190 191 191 190 180 185 183 184 179 178 173 170 171 177 181 183 190 192
187 222 218 169 123 194 196 190 213 219 224 204 202 202 246 268 245 202 202 198 201 193 193 195 197 197 198 197 196 195 194 192 196 195 192 186 188 194 192 192 188 184 186 185 189 196 214 220 224
217 203 220 238 239 54 240 211 202 227 230 227 209 179 187 215 227 234 225 223 221 202 199 200 200 200 201 202 202 202 201 199 200 202 201 198 196 195 195 191 194 194 194 192 200 212 224 239 243
204 217 228 235 235 222 306 172 188 237 233 215 202 191 213 180 179 219 222 220 226 218 204 202 205 204 207 209 206 207 206 207 208 207 206 205 204 202 199 198 200 201 203 206 210 214 224 234 247
237 185 228 260 202 227 211 260 230 205 217 208 203 206 210 228 233 280 231 229 229 222 217 207 211 211 209 211 215 211 211 211 212 212 205 204 207 209 209 207 208 209 213 217 221 225 230 238 245
207 173 194 228 161 227 191 228 230 215 207 202 207 210 206 216 229 276 291 232 229 227 218 220 225 222 216 216 216 214 213 213 217 217 220 213 212 211 211 209 206 212 220 222 226 230 234 243 247
189 192 191 203 189 157 199 220 237 210 205 211 217 217 202 219 241 260 280 248 223 222 214 213 218 218 227 220 217 217 215 218 220 222 227 222 218 217 213 212 212 219 224 225 226 230 233 242 245
188 174 175 196 188 202 161 209 355 209 203 208 217 210 202 221 241 269 287 245 215 217 216 220 227 224 225 223 219 217 217 218 215 220 229 224 221 220 218 215 215 221 226 228 229 235 240 244 250
270 185 178 182 199 179 201 191 181 193 215 224 202 201 207 222 229 257 259 253 217 211 215 214 225 226 227 222 218 216 213 214 211 217 218 219 220 222 225 224 224 227 231 232 233 235 242 248 257
123 188 180 152 163 180 182 211 244 215 215 208 199 196 195 203 233 246 260 264 212 208 219 224 232 238 233 235 231 227 222 222 221 222 221 219 220 226 230 231 230 232 237 237 239 243 249 255 258
88 220 201 146 151 78 144 237 228 226 230 216 208 207 205 205 221 226 243 255 246 224 220 220 220 228 244 246 243 243 242 238 233 229 226 224 225 232 236 236 235 236 241 246 248 249 254 261 264
309 332 209 154 158 183 218 224 225 218 224 221 226 217 207 213 219 222 223 242 233 221 238 243 239 233 224 229 227 234 250 252 256 251 243 244 237 231 235 239 239 239 243 248 251 250 251 253 258
136 307 295 186 139 121 190 228 244 194 221 221 228 233 232 222 217 220 222 218 212 218 219 216 223 230 233 231 234 235 237 242 243 248 251 249 248 258 254 258 254 254 253 258 265 265 262 265 261
99 339 191 147 115 195 191 174 239 191 210 222 231 233 238 236 236 239 226 226 223 225 226 231 232 232 229 226 231 234 238 236 236 244 244 251 257 258 260 260 262 264 264 267 270 271 269 268 266
94 48 131 151 163 186 179 174 258 241 230 215 219 230 232 238 236 238 240 238 235 235 231 231 237 235 233 232 229 232 236 242 245 247 250 256 261 262 261 261 262 264 266 264 263 264 264 264 263
117 150 297 161 174 156 114 217 236 230 228 207 213 219 223 228 233 229 226 228 231 228 232 229 232 236 234 232 235 236 236 239 243 248 251 254 257 260 260 260 261 262 261 261 262 263 263 259 256
168 167 128 107 339 104 189 269 281 244 265 226 232 241 241 229 212 217 220 218 217 215 218 221 225 230 232 232 231 231 234 236 240 246 250 253 255 257 261 263 262 263 262 261 261 260 259 254 254
28 151 79 41 123 141 346 282 250 282 236 229 231 240 218 216 210 207 207 206 208 210 207 208 210 215 220 223 225 224 226 231 238 244 252 259 263 266 266 266 266 264 262 260 258 255 254 251 249
145 163 116 166 145 147 136 250 222 304 344 247 275 219 202 204 206 201 201 201 203 204 204 202 201 202 208 212 217 222 228 234 241 248 255 260 264 266 267 265 263 261 258 258 253 246 246 250 246
211 174 157 135 177 71 203 342 342 291 279 215 293 124 151 157 163 168 179 184 187 193 196 200 204 211 215 219 225 231 238 244 249 251 253 256 257 258 261 262 263 264 261 255 246 237 238 246 230
Height
1514 1517 1520 1523 1529 1528 1528 1523 1521 1520 1520 1519 1518 1520 1519 1518 1518 1525 1516 1519 1525 1529 1534 1538 1543 1548 1551 1555 1557 1560 1561 1563 1564 1566 1567 1568 1568 1569 1569 1569 1569 1570 1571 1573 1574 1576 1577 1579 1580
1512 1515 1519 1520 1525 1526 1520 1518 1519 1515 1516 1517 1516 1517 1520 1516 1516 1516 1517 1519 1525 1529 1533 1538 1544 1548 1552 1555 1558 1560 1562 1564 1565 1567 1568 1569 1570 1570 1571 1571 1571 1572 1573 1575 1576 1578 1579 1580 1582
1511 1514 1517 1518 1521 1515 1512 1514 1512 1515 1515 1514 1516 1516 1518 1518 1516 1515 1516 1519 1524 1530 1534 1538 1544 1549 1552 1556 1559 1561 1564 1565 1566 1568 1569 1570 1572 1572 1574 1573 1574 1574 1576 1577 1578 1579 1582 1582 1584
1509 1514 1516 1515 1511 1512 1507 1507 1509 1513 1514 1513 1514 1515 1517 1518 1517 1515 1516 1519 1523 1529 1535 1539 1544 1549 1553 1556 1559 1562 1564 1566 1567 1569 1570 1571 1573 1575 1576 1575 1575 1577 1578 1579 1581 1582 1584 1585 1586
1506 1509 1513 1510 1507 1507 1507 1505 1507 1511 1513 1513 1513 1515 1516 1517 1517 1516 1517 1520 1524 1530 1535 1540 1544 1549 1553 1556 1559 1563 1565 1567 1569 1570 1571 1572 1574 1576 1577 1577 1578 1579 1580 1582 1583 1585 1586 1587 1589
1504 1505 1506 1505 1498 1506 1505 1504 1506 1510 1513 1513 1514 1515 1516 1517 1518 1519 1521 1523 1527 1531 1536 1541 1546 1549 1553 1556 1560 1563 1565 1568 1569 1570 1571 1573 1575 1577 1578 1579 1580 1581 1582 1583 1585 1587 1588 1589 1590
1499 1502 1498 1495 1501 1504 1501 1504 1505 1510 1513 1514 1514 1517 1519 1519 1520 1522 1524 1526 1530 1534 1538 1541 1546 1550 1554 1557 1560 1563 1565 1568 1569 1570 1571 1574 1575 1577 1579 1580 1581 1582 1583 1584 1586 1588 1589 1591 1592
1499 1500 1497 1497 1498 1496 1499 1502 1504 1507 1511 1514 1513 1516 1519 1520 1521 1523 1526 1529 1532 1535 1539 1542 1545 1549 1553 1556 1560 1563 1566 1568 1569 1570 1572 1573 1576 1578 1580 1582 1583 1583 1585 1586 1587 1589 1591 1592 1593
1497 1499 1491 1491 1497 1493 1496 1499 1503 1506 1510 1511 1512 1515 1518 1518 1520 1524 1528 1530 1532 1536 1539 1542 1545 1548 1551 1555 1559 1563 1565 1567 1569 1571 1573 1574 1575 1578 1581 1582 1584 1585 1585 1587 1589 1590 1592 1594 1595
1494 1495 1490 1490 1492 1493 1495 1496 1500 1505 1508 1510 1510 1514 1516 1517 1519 1521 1527 1530 1532 1534 1538 1542 1545 1547 1550 1553 1557 1561 1563 1566 1569 1570 1572 1574 1576 1578 1580 1582 1584 1585 1586 1587 1589 1591 1593 1594 1596
1490 1489 1490 1490 1489 1493 1494 1495 1498 1502 1506 1505 1507 1512 1515 1518 1521 1523 1525 1530 1532 1535 1537 1541 1544 1547 1550 1552 1555 1559 1562 1565 1567 1570 1571 1574 1577 1579 1581 1582 1583 1584 1586 1588 1590 1591 1593 1594 1596
1487 1487 1489 1490 1490 1492 1494 1494 1496 1497 1497 1503 1506 1511 1515 1518 1522 1523 1526 1529 1531 1534 1538 1540 1543 1546 1549 1553 1555 1558 1561 1563 1566 1568 1571 1573 1576 1578 1581 1583 1585 1586 1587 1588 1590 1591 1592 1594 1595
1484 1486 1489 1488 1489 1489 1493 1492 1495 1493 1498 1502 1506 1507 1513 1517 1520 1523 1526 1530 1531 1533 1536 1539 1541 1545 1548 1551 1554 1557 1560 1562 1565 1567 1569 1572 1575 1578 1580 1581 1583 1585 1586 1587 1589 1590 1591 1593 1594
1482 1486 1487 1487 1486 1490 1493 1493 1493 1490 1495 1499 1501 1503 1512 1515 1518 1521 1524 1529 1530 1532 1534 1537 1540 1543 1546 1549 1552 1555 1558 1561 1563 1565 1568 1571 1574 1576 1578 1580 1582 1583 1585 1586 1587 1589 1590 1591 1592
1481 1484 1485 1486 1485 1489 1492 1493 1490 1489 1491 1496 1498 1500 1508 1513 1516 1519 1523 1525 1527 1529 1531 1535 1537 1541 1544 1546 1550 1554 1556 1559 1562 1565 1567 1570 1572 1574 1576 1578 1580 1581 1583 1584 1585 1587 1588 1590 1591
1480 1483 1485 1482 1485 1489 1491 1488 1487 1487 1490 1491 1494 1498 1502 1510 1514 1517 1519 1520 1525 1528 1530 1534 1537 1539 1541 1543 1547 1551 1554 1557 1560 1563 1566 1568 1570 1572 1574 1576 1578 1579 1580 1582 1583 1584 1586 1588 1589
1475 1475 1480 1481 1483 1486 1489 1488 1485 1487 1488 1489 1491 1493 1495 1505 1510 1513 1515 1516 1521 1525 1529 1531 1533 1536 1539 1540 1543 1547 1551 1554 1557 1560 1563 1566 1568 1570 1572 1574 1576 1577 1578 1580 1581 1582 1584 1586 1587
1464 1470 1473 1476 1481 1484 1488 1488 1486 1485 1487 1487 1489 1491 1496 1502 1506 1511 1512 1512 1518 1522 1526 1528 1531 1534 1537 1538 1541 1545 1548 1551 1553 1557 1560 1563 1565 1567 1569 1571 1573 1575 1576 1578 1579 1580 1581 1583 1584
1471 1467 1469 1477 1477 1480 1486 1485 1484 1486 1485 1486 1489 1491 1493 1500 1504 1509 1512 1511 1514 1518 1522 1524 1529 1531 1534 1535 1539 1542 1543 1546 1549 1553 1556 1559 1562 1564 1566 1568 1570 1572 1573 1575 1577 1578 1579 1580 1582
1474 1469 1473 1476 1477 1479 1484 1486 1486 1486 1485 1485 1486 1488 1493 1499 1504 1507 1508 1510 1512 1515 1517 1521 1525 1528 1532 1537 1540 1542 1543 1546 1548 1550 1553 1556 1558 1561 1563 1565 1567 1569 1570 1572 1573 1575 1576 1577 1578
1471 1475 1472 1471 1478 1482 1483 1487 1485 1483 1484 1483 1483 1485 1491 1493 1500 1503 1505 1507 1509 1511 1515 1519 1523 1529 1530 1534 1538 1540 1542 1543 1545 1546 1548 1551 1554 1557 1559 1561 1563 1565 1567 1568 1570 1571 1572 1574 1574
1472 1478 1467 1468 1470 1476 1479 1481 1480 1479 1480 1480 1480 1483 1487 1489 1494 1501 1506 1507 1507 1511 1512 1515 1521 1525 1527 1529 1532 1535 1539 1540 1541 1543 1545 1549 1551 1553 1555 1556 1558 1561 1562 1563 1565 1566 1567 1568 1568
1473 1477 1474 1463 1474 1477 1482 1479 1471 1479 1473 1472 1475 1478 1482 1486 1490 1494 1499 1502 1504 1508 1510 1513 1515 1519 1523 1526 1528 1531 1534 1536 1539 1541 1541 1544 1547 1550 1550 1551 1553 1555 1556 1558 1560 1561 1561 1562 1563
1475 1476 1471 1470 1472 1478 1481 1479 1469 1471 1466 1468 1469 1472 1475 1480 1483 1487 1492 1495 1498 1500 1504 1508 1510 1512 1517 1520 1522 1525 1529 1534 1535 1537 1534 1539 1540 1542 1544 1546 1549 1549 1550 1552 1553 1555 1554 1555 1556
1475 1477 1461 1467 1473 1475 1481 1479 1460 1462 1461 1460 1460 1463 1468 1473 1478 1481 1485 1488 1492 1496 1499 1502 1504 1507 1510 1513 1517 1520 1524 1526 1527 1529 1530 1532 1535 1537 1539 1540 1542 1543 1544 1545 1546 1547 1549 1549 1549
1474 1480 1476 1462 1469 1476 1481 1470 1456 1453 1453 1456 1458 1460 1464 1467 1470 1475 1479 1484 1487 1491 1496 1497 1499 1502 1505 1507 1510 1514 1517 1521 1521 1524 1526 1529 1531 1533 1534 1535 1536 1537 1538 1539 1540 1540 1542 1542 1543
1474 1473 1477 1479 1483 1466 1476 1470 1455 1452 1454 1456 1456 1458 1459 1461 1465 1468 1474 1479 1482 1487 1491 1494 1496 1498 1501 1504 1506 1509 1512 1516 1518 1520 1523 1525 1526 1527 1528 1529 1529 1530 1532 1532 1533 1533 1534 1536 1537
1469 1474 1477 1483 1475 1466 1480 1471 1454 1451 1453 1454 1456 1456 1458 1458 1460 1464 1468 1474 1478 1483 1487 1490 1493 1495 1497 1500 1503 1505 1508 1510 1514 1515 1517 1519 1519 1520 1520 1522 1522 1523 1524 1524 1525 1525 1527 1529 1531
1470 1472 1474 1476 1476 1472 1473 1462 1456 1453 1453 1453 1455 1455 1456 1457 1459 1461 1465 1470 1475 1479 1484 1486 1490 1492 1496 1498 1500 1502 1504 1507 1509 1510 1511 1512 1512 1512 1514 1514 1515 1516 1516 1516 1518 1519 1521 1523 1524
1463 1465 1469 1478 1471 1486 1483 1462 1454 1454 1453 1453 1454 1454 1455 1458 1460 1461 1464 1468 1473 1478 1482 1486 1488 1491 1494 1496 1498 1499 1501 1502 1503 1504 1505 1506 1507 1507 1508 1508 1508 1510 1510 1510 1512 1515 1517 1519 1519